sat.trackr.live / text

‹ back to catalog

STARLINK-5710

NORAD 55616 · 2023-020AZ

PAYLOAD ACTIVE UNKNOWN

§ Identity

Operator
Country
US
Launch date
2023-02-12
Launch site
AFETR
Launch vehicle
Mass (kg)
RCS (m²)

Purposes: comms

External: N2YO · Heavens-Above · Gunter

§ Orbital elements

Epoch: 2026-09-20T21:10:36.208992Z

Period
94.27 min
Inclination
43.0021°
Eccentricity
0.0001025
Mean motion
15.27575062 rev/d
Perigee alt
482.4 km
Apogee alt
483.8 km
Semi-major
6,861.2 km
B*
6.5435e-6
RAAN
331.7040°
Arg perigee
273.3429°
Mean anomaly
86.7305°
Rev number
19,889

§ Raw data

STARLINK-57101 55616U 23020AZ  26263.88236353 -.00000082  00000+0  65435-5 0  99952 55616  43.0021 331.7040 0001025 273.3429  86.7305 15.27575062198895

JSON: /api/v1/satellites/55616 · /tle

For live sub-satellite position, see the globe view (requires WebGL).

§ Visibility from observer

Set your observer location to see the next 7 days of passes ≥ 10°. The values pass through the URL so the page stays shareable.

No JS? Fill the form by hand. The geolocation button needs JavaScript.